DECAYED
Showing default

ICOR SV, 68127 (Decayed)

Orbit data source: Space-Track

ICOR SV, 68127 was a payload satellite owned by LMSS Denver (US) in LEO that was launched on Thu, 12 Mar 2026 UTC via an FIREFLY ALPHA launch vehicle from the Air Force Western Test Range (AFWTR). Payload-class satellites include a variety of spacecraft equipped with specific instruments for various scientific and technological missions. These include communications satellites like Starlink; space stations such as the ISS; scientific satellites like the Hubble; Earth observation satellites from companies like Planet Labs, Umbra, and HawkEye 360; GPS; miniature CubeSats for education and research; and military/defense satellites.

Not visible in the next 10 days
Identifier
68127, 2026-046A
Orbit
Decayed
Country
Flag of USUS
Related business
Manufacturer
LMSS Denver
Mission
Decayed spacecraft
Bus & Motor
LM-400, Unknown motor
Mass
~1,100 kg wet, ~1,100 kg dry
Launch date (UTC)
2026-03-12 (3 months ago)
Launch vehicle
FIREFLY ALPHA
Launch site
Air Force Western Test Range (AFWTR)
Object type
Payload
Rocket body
Debris
Shape & HBR
Unknown shape, 0.5 m
Radar Cross Section
Medium (>0.1 m² and <1 m²)

Expand to show TLE details & history
Last TLE update: 2 months ago

TLE from 2 months ago
0 ICOR SV
1 68127U 26046A   26109.59295808  .02873854  13124-4  51214-3 0  9994
2 68127 123.0635  36.1737 0038563 269.9104  89.7570 16.29449949  6143
Epoch: 2026-04-19T14:13Z
TLE epoch observation values (Epoch: 2026-04-19T14:13:51.578Z)
Latitude
Longitude
-24.98643°
Altitude
195.361 km
Speed
7.79 km/s
True Right ascension
02h 24m 41s
True Declination
0° 00' 00"
Sunlit
Object was in daylight at epoch
Visualization orbit readout
Latitude
Unknown
Longitude
Unknown
Altitude
Unknown
Speed
Unknown
Apparent Right ascension
Unknown
Apparent Declination
Unknown
Sunlit
N/A
Visualization observer readout
Local Sidereal Time
07:23:30
Azimuth
Unknown
Elevation
Unknown
Doppler factor
Unknown
Orbital elements
Apogee altitude
219.007 km
Perigee altitude
168.321 km
Semi-major axis
6,571.801 km
Eccentricity
0.00386
Inclination
123.0635°
RAAN
36.1737°
Arg. of periapsis
269.9104°
True anomaly
90.1989°
Mean anomaly
89.757°
Eccentric anomaly
89.97795°
Mean motion
4.07396 °/min
Orbital period
88.37 mins
BSTAR
0.00051214
Loading maneuver chart data...
Computing Atmospheric mass density...
Loading historical data...
Loading historical data...
Loading historical data...
Loading historical data...
Loading historical data...
Loading historical data...
Loading historical data...
Other satellites on launch #46 in the year 2026 (2026-03-12 UTC)

Documentation

Showing up to 5 results
|